{"data":{"norad_id":48321,"intl_designator":"2021-036AX","name":"STARLINK-2457","alt_names":[],"object_type":"PAYLOAD","status":"ACTIVE","operator":null,"country":"US","launch_date":"2021-04-29","launch_site_code":"AFETR","launch_vehicle":null,"mission":null,"orbit_class":"UNKNOWN","rcs_meters":null,"size_class":null,"mass_kg":null,"dimensions":null,"purposes":["comms"],"wikipedia_slug":null,"has_3d_model":false,"image_url":null,"decayed_at":null,"tle_current":{"epoch":"2026-09-20T01:42:41.046624Z","epoch_age_seconds":70617,"freshness":"FRESH","line1":"1 48321U 21036AX  26263.07130841  .00000794  00000+0  37348-4 0  9991","line2":"2 48321  53.1592 276.4499 0001268  71.0404 289.0735 15.31711525297822","mean_motion":15.31711525,"eccentricity":0.0001268,"inclination_deg":53.1592,"raan_deg":276.4499,"arg_perigee_deg":71.0404,"mean_anomaly_deg":289.0735,"bstar":3.7348e-5,"rev_number":29782,"period_min":94.012480581159,"perigee_km":469.83720676902,"apogee_km":471.57407326253,"semimajor_km":6848.8426400158,"source":"CELESTRAK","updated_at":"2026-09-20T09:00:38.936002Z"}}}